Vorticity
7 15 11 10 11 11 10 15 8 9 6 5 7 8 13 12 9 9 9 9 8 14 1 3 6 10 6 35 5 1 4 -3
15 7 4 7 5 8 12 11 11 7 8 9 7 12 14 12 12 14 5 13 5 4 26 24 2 -2 -6 2 16 21 8 6
12 9 6 5 4 5 8 16 5 4 6 5 7 7 10 11 16 12 8 10 10 13 19 29 -6 14 15 12 7 7 10 13
9 11 12 8 8 18 15 11 4 8 2 3 9 7 2 12 3 4 9 8 6 6 -4 -2 13 19 23 31 21 15 12 10
4 9 10 1 4 9 9 10 -2 5 13 3 4 5 -2 10 4 10 18 4 8 10 11 13 12 15 11 8 9 9 18 16
4 3 4 3 8 5 3 -1 5 10 1 10 7 7 5 5 1 1 8 12 8 12 12 10 9 10 9 8 11 6 6 9
3 6 2 -3 3 4 3 10 5 3 9 8 9 10 5 6 8 7 9 7 2 7 10 8 8 8 4 6 8 10 8 8
5 4 0 2 3 4 5 24 12 3 15 12 7 13 12 2 2 -3 -5 1 8 8 8 7 7 7 8 8 8 8 7 10
1 3 5 2 -0 5 37 24 -25 9 4 -3 10 7 4 11 3 5 5 41 10 10 9 9 7 7 6 7 7 8 8 8
4 10 9 9 11 7 2 7 -1 4 10 7 12 14 6 14 5 32 -18 7 12 10 7 8 6 7 8 7 6 8 7 8
15 16 16 18 20 19 21 18 18 22 13 12 8 23 12 5 11 4 0 40 7 10 9 6 8 7 8 7 7 8 7 8
53 46 34 32 19 15 11 11 15 16 14 15 3 29 3 7 13 64 -4 18 9 7 2 6 5 8 9 9 8 8 7 7
13 25 31 35 23 24 21 19 12 25 15 22 6 -37 14 37 35 13 29 6 4 6 3 5 7 7 10 8 7 6 8 9
21 26 11 15 22 15 10 16 21 10 21 25 48 73 38 83 14 6 15 7 2 0 7 8 9 11 8 9 8 8 9 8
23 13 12 12 19 33 25 16 36 16 13 -18 33 11 8 21 24 17 7 0 5 4 7 8 8 9 9 7 8 9 10 7
13 15 26 15 7 19 44 56 53 46 30 14 3 17 27 18 14 9 4 2 3 7 9 9 11 9 8 0 -4 10 15 8
9 25 22 29 20 15 4 25 5 36 4 -7 6 27 8 -7 4 6 5 10 8 11 9 14 7 4 12 0 2 13 4 10
19 17 26 23 21 8 8 26 119 16 -17 7 17 10 -10 14 6 6 8 11 8 11 2 1 5 -16 -5 -3 -7 8 12 3
25 17 25 16 11 8 15 23 10 -20 48 -11 11 15 16 6 10 12 12 8 3 -4 21 7 7 5 -1 6 10 16 3 -3
Height
5726 5727 5727 5728 5727 5726 5727 5729 5727 5726 5725 5725 5724 5724 5725 5724 5724 5723 5723 5723 5723 5722 5724 5725 5727 5729 5730 5729 5729 5730 5731 5731
5718 5716 5716 5717 5718 5716 5716 5717 5717 5714 5714 5713 5712 5714 5713 5714 5714 5714 5713 5713 5713 5713 5712 5713 5715 5717 5719 5720 5719 5720 5720 5720
5706 5705 5706 5705 5704 5704 5704 5704 5703 5702 5700 5701 5700 5701 5702 5702 5703 5704 5705 5704 5703 5703 5703 5707 5705 5707 5708 5709 5709 5710 5711 5712
5696 5695 5694 5692 5692 5692 5692 5692 5692 5692 5690 5689 5689 5692 5692 5692 5692 5692 5693 5693 5695 5694 5694 5695 5697 5698 5699 5699 5700 5700 5700 5700
5685 5684 5683 5682 5681 5680 5680 5681 5682 5682 5680 5677 5678 5679 5681 5681 5680 5681 5682 5683 5683 5683 5685 5686 5687 5688 5690 5691 5691 5692 5692 5692
5675 5673 5669 5667 5667 5666 5666 5667 5667 5668 5668 5665 5664 5666 5668 5668 5668 5670 5671 5671 5672 5673 5675 5676 5677 5678 5679 5681 5682 5682 5683 5683
5657 5655 5654 5653 5650 5650 5649 5649 5650 5652 5652 5651 5651 5653 5654 5655 5657 5658 5659 5660 5661 5662 5663 5664 5666 5667 5669 5670 5670 5671 5672 5673
5640 5638 5635 5634 5631 5631 5631 5631 5632 5634 5635 5636 5639 5640 5639 5642 5645 5646 5647 5648 5648 5651 5651 5653 5655 5657 5659 5660 5662 5662 5663 5664
5619 5618 5616 5613 5612 5611 5613 5614 5613 5617 5619 5622 5624 5624 5625 5629 5632 5634 5633 5633 5634 5638 5641 5644 5645 5647 5649 5650 5652 5653 5653 5653
5591 5590 5590 5590 5589 5590 5591 5593 5597 5600 5603 5604 5605 5607 5610 5614 5617 5621 5621 5621 5621 5627 5629 5632 5636 5638 5639 5641 5642 5642 5642 5643
5566 5566 5564 5565 5564 5566 5567 5570 5575 5579 5583 5585 5586 5589 5591 5595 5600 5605 5607 5603 5607 5616 5621 5623 5626 5628 5629 5631 5632 5633 5634 5634
5541 5540 5540 5539 5540 5543 5546 5550 5554 5559 5563 5567 5570 5569 5572 5578 5586 5587 5588 5593 5597 5606 5611 5613 5616 5619 5620 5620 5621 5624 5624 5625
5519 5516 5516 5516 5518 5518 5523 5528 5534 5541 5545 5551 5553 5555 5559 5563 5566 5569 5577 5582 5587 5594 5600 5603 5606 5609 5610 5611 5613 5614 5615 5614
5497 5499 5500 5500 5502 5505 5507 5513 5519 5526 5532 5536 5538 5544 5545 5553 5559 5563 5569 5575 5580 5586 5590 5593 5597 5600 5601 5603 5604 5605 5606 5606
5485 5486 5487 5488 5490 5492 5497 5502 5507 5513 5520 5524 5529 5534 5540 5546 5551 5556 5560 5568 5573 5577 5581 5585 5588 5589 5591 5592 5593 5595 5597 5597
5476 5476 5475 5478 5481 5484 5487 5491 5494 5500 5506 5511 5518 5524 5531 5538 5546 5550 5556 5560 5564 5569 5573 5576 5578 5579 5582 5584 5585 5587 5586 5586
5468 5466 5467 5470 5473 5478 5480 5484 5489 5493 5501 5505 5510 5519 5525 5533 5538 5542 5547 5553 5556 5561 5564 5565 5569 5572 5573 5576 5576 5576 5577 5578
5462 5461 5463 5466 5467 5470 5474 5476 5477 5488 5495 5499 5505 5513 5519 5525 5530 5534 5539 5544 5548 5550 5553 5557 5560 5562 5564 5565 5565 5567 5568 5567
5460 5460 5460 5461 5463 5466 5468 5469 5475 5483 5490 5495 5500 5507 5513 5517 5523 5528 5532 5535 5538 5542 5547 5549 5551 5554 5555 5555 5556 5557 5557 5558